AirNav   ATP
 
 375 users online  

MY26 Minnesota Valley Health Center Heliport
Le Sueur, Minnesota, USA

GOING TO LE SUEUR?


FAA INFORMATION EFFECTIVE 01 FEBRUARY 2018

Location

FAA Identifier: MY26
Lat/Long: 44-27-11.7727N / 093-54-56.3704W
44-27.196212N / 093-54.939507W
44.4532702 / -93.9156584
(estimated)
Elevation: 839 ft. / 256 m (estimated)
Variation: 02E (2000)
From city: 1 mile SE of LE SUEUR, MN
Time zone: UTC -6 (UTC -5 during Daylight Saving Time)
Zip code: 56058

Heliport Operations

Heliport use: Private use. Permission required prior to landing
Activation date: 11/2002
Control tower: no
ARTCC: MINNEAPOLIS CENTER
FSS: PRINCETON FLIGHT SERVICE STATION
Attendance: UNATNDD
Wind indicator: yes
Segmented circle: no
Lights: SS-SR

Heliport Communications

WX AWOS-3PT at MKT (14 nm S): 118.175 (507-625-3726)
WX AWOS-3 at GYL (19 nm N): 119.625 (320-864-5830)

Nearby radio navigation aids

VOR radial/distance  VOR name  Freq  Var
MKTr352/14.0MANKATO VOR/DME110.8007E
FOWr301/27.8HALFWAY VOR/DME111.2002E
FCMr221/30.1FLYING CLOUD VOR/DME117.7001E
FGTr245/33.1FARMINGTON VORTAC115.7006E
MSPr225/39.3MINNEAPOLIS VOR/DME115.3002E

 
NDB name  Hdg/Dist  Freq  Var  ID
GLENCOE155/19.840703EGYL --. -.-- .-..
ST JAMES043/39.226001EJYG .--- -.-- --.

Heliport Services

Runway Information

Helipad H1

Dimensions: 50 x 50 ft. / 15 x 15 m
Surface: concrete
Runway edge lights: FLD
Latitude: 44-27.196212N
Longitude: 093-54.939507W
Elevation: 839.0 ft.
Traffic pattern: leftleft

Heliport Ownership and Management from official FAA records

Ownership: Privately-owned
Owner: CITY OF LE SUEUR
621 S 4TH ST
LE SUEUR, MN 56058
Phone (507) 665-3375
Manager: RUSS LAWRENCE
621 S 4TH ST
LE SUEUR, MN 56058
Phone (507) 665-3375
RUSS LAWRENCE 621 S. 4TH ST LE SUEUR, MN 56058 612-669-8091

Instrument Procedures

There are no published instrument procedures at MY26.

Some nearby airports with instrument procedures:

KMKT - Mankato Regional Airport (14 nm S)
KGYL - Glencoe Municipal Airport (19 nm N)
KULM - New Ulm Municipal Airport (26 nm W)
KFBL - Faribault Municipal Airport-Liz Wall Strohfus Field (27 nm E)
KACQ - Waseca Municipal Airport (28 nm SE)
 
Loc | Ops | Rwys | IFR | FBO | Links
Com | Nav | Svcs | Stats | Notes

AirNav Hotels Sweepstakes
 
Area around MY26 (Minnesota Valley Health Center Heliport)
 
Road maps at: MapQuest Bing Google
 
Aerial photo
No photo
 
Sectional chart

 
Airport distance calculator
Flying to Minnesota Valley Health Center Heliport? Find the distance to fly.

From to MY26

Sunrise and sunset
Times for 24-Feb-2018
 Local
(UTC-6)
 Zulu
(UTC)
Morning civil twilight06:3312:33
Sunrise07:0213:02
Sunset17:5523:55
Evening civil twilight18:2500:25

Current date and time
Zulu (UTC)  24-Feb-2018 08:28:38
Local (UTC-6)  24-Feb-2018 02:28:38
 
METAR
KMKT 
14nm S 
240809Z AUTO 12003KT 1/4SM FZFG OVC001 M16/M17 A3025 RMK AO2 SNE02 P0000 FZRANO
KGYL 
19nm N 
240815Z AUTO 00000KT 7SM CLR M17/M19 A3024 RMK AO2 T11731192
KULM 
26nm W 
240815Z AUTO 00000KT 1/4SM HZ OVC001 M18/M21 A3023 RMK AO2
KFBL 
27nm E 
240815Z AUTO 00000KT M1/4SM -SN OVC003 M16/M18 A3024 RMK AO2
KACQ 
28nm SE 
240815Z AUTO 00000KT M1/4SM FZFG OVC001 M14/M16 A3025 RMK AO2
TAF
KMKT 
14nm S 
240531Z 2406/2506 VRB03KT 1/2SM FG SCT008 FM240700 VRB03KT 1/4SM FZFG VV003 FM241500 10008KT 3SM BR OVC008 FM242000 07012KT 1/2SM SN FG OVC003 FM250300 30008KT 1 1/2SM -SN BR OVC007
NOTAMs
Click for the latest NOTAMs
NOTAMs are issued by the DoD/FAA and will open in a separate window not controlled by AirNav.

 

 
 

Would you like to see your business listed on this page?

 If your business provides an interesting product or service to pilots, flight crews, aircraft, or users of the Minnesota Valley Health Center Heliport, you should consider listing it here.  To start the listing process, click on the button below
 
Add a business
 

Other Pages about Minnesota Valley Health Center Heliport

Update a link
 
Copyright © AirNav, LLC. All rights reserved. Privacy Policy  Contact